TimeAST,TemperatureF,Dew PointF,Humidity,Sea Level PressureIn,VisibilityMPH,Wind Direction,Wind SpeedMPH,Gust SpeedMPH,PrecipitationIn,Events,Conditions,WindDirDegrees,DateUTC
12:00 AM,82.4,77.0,84,29.80,-9999.0,North,-9999.0,-,N/A,,Unknown,0,2012-10-21 04:00:00
1:00 AM,82.4,77.0,84,29.80,-9999.0,North,-9999.0,-,N/A,,Unknown,0,2012-10-21 05:00:00
2:00 AM,82,76,79,,,ESE,11.5,,,,Clear,110,2012-10-21 06:00:00
2:00 AM,82.4,77.0,84,29.77,-9999.0,North,-9999.0,-,N/A,,Unknown,0,2012-10-21 06:00:00
3:00 AM,82.4,77.0,84,29.77,-9999.0,North,-9999.0,-,N/A,,Unknown,0,2012-10-21 07:00:00
4:00 AM,82.4,77.0,84,29.77,-9999.0,North,-9999.0,-,N/A,,Unknown,0,2012-10-21 08:00:00
5:00 AM,82,77,80,,,ESE,11.5,,,,Clear,110,2012-10-21 09:00:00
5:00 AM,82.4,77.0,84,29.77,-9999.0,North,-9999.0,-,N/A,,Unknown,0,2012-10-21 09:00:00
6:00 AM,78.8,77.0,94,29.80,-9999.0,North,-9999.0,-,N/A,,Unknown,0,2012-10-21 10:00:00
8:00 AM,74,74,100,29.87,5,ESE,11.5,,,Rain,Light Rain,110,2012-10-21 12:00:00
8:00 AM,75.2,73.4,94,29.83,-9999.0,North,-9999.0,-,N/A,,Unknown,0,2012-10-21 12:00:00
9:00 AM,75.2,75.2,100,29.86,6.2,ENE,5.8,-,N/A,,Partly Cloudy,70,2012-10-21 13:00:00
10:00 AM,78.8,77.0,94,29.86,6.2,East,6.9,-,N/A,,Partly Cloudy,100,2012-10-21 14:00:00
11:00 AM,82,80,92,29.87,12,East,8.1,,,,Partly Cloudy,100,2012-10-21 15:00:00
11:00 AM,80.6,78.8,94,29.86,6.2,East,8.1,-,N/A,,Partly Cloudy,100,2012-10-21 15:00:00
12:00 PM,84.2,78.8,84,29.83,6.2,East,16.1,-,N/A,,Scattered Clouds,100,2012-10-21 16:00:00
1:00 PM,86.0,78.8,79,29.80,6.2,East,10.4,-,N/A,,Partly Cloudy,100,2012-10-21 17:00:00
2:00 PM,86.0,78.8,79,29.77,-9999.0,North,-9999.0,-,N/A,,Unknown,0,2012-10-21 18:00:00
3:00 PM,86.0,78.8,79,29.74,6.2,East,15.0,-,N/A,,Scattered Clouds,100,2012-10-21 19:00:00
4:00 PM,86.0,78.8,79,29.74,6.2,East,15.0,-,N/A,,Scattered Clouds,100,2012-10-21 20:00:00
5:00 PM,,,,,,Calm,Calm,,,,,,2012-10-21 21:00:00
5:00 PM,-9999,-9999,N/A,29.74,-9999.0,North,-9999.0,-,N/A,,Unknown,0,2012-10-21 21:00:00
6:00 PM,84.2,77.0,79,29.77,-9999.0,North,-9999.0,-,N/A,,Unknown,0,2012-10-21 22:00:00
8:00 PM,83,77,77,,6,ESE,11.5,,,,Clear,110,2012-10-22 00:00:00
8:00 PM,82.4,77.0,84,29.80,-9999.0,ESE,11.5,-,N/A,,Unknown,110,2012-10-22 00:00:00
9:00 PM,82.4,75.2,79,29.80,-9999.0,ESE,11.5,-,N/A,,Unknown,110,2012-10-22 01:00:00
11:00 PM,82.4,77.0,84,29.80,-9999.0,North,-9999.0,-,N/A,,Unknown,0,2012-10-22 03:00:00